Вернуться в каталог

STARLINK-34621

АктивенСвязьVLEO
NORAD 64774·PAYLOAD·🇺🇸 United States

Запущен Jul 8, 2025 с Cape Canaveral Space Force Station

Loading…

Ближайшие Пролёты (ближайшие 24 часа)

TLE

СвежийSource: CelesTrak SupGP

Эпоха: Sep 15, 2026, 03:01 UTC

1 64774C 25147V   26258.12618056 -.00023192  00000+0 -68532-3 0  2582
2 64774  53.1588  82.5648 0001201  81.6742 117.0059 15.34397191    12

Отслеживайте STARLINK-34621 в реальном времени с AllMySat

Download on the App Store